,,,PA_Meas_PMT16A,,PR_Meas_QMR101_102,,RH_Meas_QMH101,,SR_Meas_QMS101,,TA_Meas_QMH101,,GenWind,,GenWind,
date,time,status,PA,status,PR,status,RH,status,SR,status,TA,status,DirAvg,status,SpdAvg,
2012-08-21, 00:00:04,VALID,1000.93,VALID,0,VALID,81.5454,VALID,0,VALID,23.8573,VALID,144,VALID,0.196094,
2012-08-21, 00:01:04,VALID,1000.95,VALID,0,VALID,81.7819,VALID,0,VALID,23.7988,VALID,144,VALID,0.155078,
2012-08-21, 00:02:04,VALID,1000.91,VALID,0,VALID,82.2931,VALID,0,VALID,23.7579,VALID,144,VALID,0.181641,
2012-08-21, 00:03:04,VALID,1000.97,VALID,0,VALID,82.6517,VALID,0,VALID,23.7012,VALID,144,VALID,0.273438,
2012-08-21, 00:04:04,VALID,1000.98,VALID,0,VALID,82.5983,VALID,0,VALID,23.6604,VALID,144,VALID,0.164844,
2012-08-21, 00:05:04,VALID,1000.97,VALID,0,VALID,82.4838,VALID,0,VALID,23.6409,VALID,144,VALID,0.361719,
2012-08-21, 00:06:04,VALID,1000.99,VALID,0,VALID,82.438,VALID,0,VALID,23.6409,VALID,144,VALID,0.507422,
2012-08-21, 00:07:04,VALID,1000.96,VALID,0,VALID,82.4304,VALID,0,VALID,23.6409,VALID,144,VALID,0.252344,
2012-08-21, 00:08:04,VALID,1001.02,VALID,0,VALID,82.3617,VALID,0,VALID,23.6409,VALID,144,VALID,0,
2012-08-21, 00:09:04,VALID,1000.97,VALID,0,VALID,82.4533,VALID,0,VALID,23.6019,VALID,144,VALID,0.00117188,
2012-08-21, 00:10:04,VALID,1000.97,VALID,0,VALID,82.8958,VALID,0,VALID,23.6019,VALID,144,VALID,0.380859,
2012-08-21, 00:11:04,VALID,1001.03,VALID,0,VALID,82.5754,VALID,0,VALID,23.6019,VALID,117,VALID,0.741406,
2012-08-21, 00:12:04,VALID,1001.05,VALID,0,VALID,82.3312,VALID,0,VALID,23.5823,VALID,110,VALID,0.838281,
2012-08-21, 00:13:04,VALID,1001.02,VALID,0,VALID,82.5449,VALID,0,VALID,23.5433,VALID,109,VALID,0.701563,
2012-08-21, 00:14:04,VALID,1001.02,VALID,0,VALID,82.6669,VALID,0,VALID,23.5433,VALID,109,VALID,0.764453,
2012-08-21, 00:15:04,VALID,1000.97,VALID,0,VALID,82.6822,VALID,0,VALID,23.5841,VALID,47,VALID,1.4582,
2012-08-21, 00:16:04,VALID,1000.99,VALID,0,VALID,82.7738,VALID,0,VALID,23.5238,VALID,40,VALID,1.43594,
2012-08-21, 00:17:04,VALID,1000.98,VALID,0,VALID,83.6664,VALID,0,VALID,23.4475,VALID,40,VALID,1.33672,
2012-08-21, 00:18:04,VALID,1000.95,VALID,0,VALID,85.406,VALID,0,VALID,23.3305,VALID,39,VALID,1.76875,
2012-08-21, 00:19:04,VALID,1000.93,VALID,0,VALID,87.6796,VALID,0,VALID,23.2134,VALID,38,VALID,1.64063,
2012-08-21, 00:20:04,VALID,1000.9,VALID,0,VALID,88.3434,VALID,0,VALID,23.1336,VALID,48,VALID,1.45625,
2012-08-21, 00:21:04,VALID,1000.89,VALID,0,VALID,89.32,VALID,0,VALID,23.0946,VALID,43,VALID,0.739453,
2012-08-21, 00:22:04,VALID,1000.88,VALID,0,VALID,89.8998,VALID,0,VALID,23.0573,VALID,43,VALID,0.545703,
2012-08-21, 00:23:04,VALID,1000.85,VALID,0,VALID,90.5178,VALID,0,VALID,22.9988,VALID,43,VALID,1.28477,
2012-08-21, 00:24:04,VALID,1000.85,VALID,0,VALID,90.7314,VALID,0,VALID,22.9403,VALID,23,VALID,1.10977,
2012-08-21, 00:25:04,VALID,1000.87,VALID,0,VALID,90.9527,VALID,0,VALID,22.841,VALID,18,VALID,0.914844,
2012-08-21, 00:26:04,VALID,1000.85,VALID,0,VALID,91.5707,VALID,0,VALID,22.8427,VALID,13,VALID,0.264453,
2012-08-21, 00:27:04,VALID,1000.81,VALID,0,VALID,91.7767,VALID,0,VALID,22.8232,VALID,13,VALID,0.855078,
2012-08-21, 00:28:04,VALID,1000.78,VALID,0,VALID,91.708,VALID,0,VALID,22.763,VALID,31,VALID,1.23359,
2012-08-21, 00:29:04,VALID,1000.78,VALID,0,VALID,91.5783,VALID,0,VALID,22.6655,VALID,34,VALID,0.836719,
2012-08-21, 00:30:04,VALID,1000.76,VALID,0,VALID,91.5173,VALID,0,VALID,22.6282,VALID,34,VALID,0.752734,
2012-08-21, 00:31:04,VALID,1000.7,VALID,0,VALID,91.4791,VALID,0,VALID,22.5696,VALID,34,VALID,1.13437,
2012-08-21, 00:32:04,VALID,1000.65,VALID,0,VALID,91.7385,VALID,0,VALID,22.5094,VALID,32,VALID,0.964063,
2012-08-21, 00:33:04,VALID,1000.62,VALID,0,VALID,91.8911,VALID,0,VALID,22.5111,VALID,21,VALID,0.858594,
2012-08-21, 00:34:04,VALID,1000.61,VALID,0,VALID,91.7233,VALID,0,VALID,22.4704,VALID,12,VALID,0.830078,
2012-08-21, 00:35:04,VALID,1000.6,VALID,0,VALID,91.8072,VALID,0,VALID,22.4916,VALID,12,VALID,0.528125,
2012-08-21, 00:36:04,VALID,1000.58,VALID,0,VALID,91.8606,VALID,0,VALID,22.5111,VALID,12,VALID,0.075,
2012-08-21, 00:37:04,VALID,1000.56,VALID,0,VALID,91.6088,VALID,0,VALID,22.4916,VALID,12,VALID,0.274219,
2012-08-21, 00:38:04,VALID,1000.52,VALID,0,VALID,91.4257,VALID,0,VALID,22.4314,VALID,12,VALID,0.28125,
2012-08-21, 00:39:04,VALID,1000.49,VALID,0,VALID,91.4715,VALID,0,VALID,22.3729,VALID,12,VALID,0.308594,
2012-08-21, 00:40:04,VALID,1000.47,VALID,0,VALID,91.7843,VALID,0,VALID,22.3941,VALID,12,VALID,0.451562,
2012-08-21, 00:41:04,VALID,1000.45,VALID,0,VALID,91.9217,VALID,0,VALID,22.4331,VALID,12,VALID,0.104687,
2012-08-21, 00:42:04,VALID,1000.41,VALID,0,VALID,91.7385,VALID,0,VALID,22.4331,VALID,12,VALID,0.119531,
2012-08-21, 00:43:04,VALID,1000.38,VALID,0,VALID,91.6241,VALID,0,VALID,22.4526,VALID,12,VALID,0.150781,
2012-08-21, 00:44:04,VALID,1000.37,VALID,0,VALID,91.5097,VALID,0,VALID,22.4721,VALID,12,VALID,0.301562,
2012-08-21, 00:45:04,VALID,1000.36,VALID,0,VALID,91.38,VALID,0,VALID,22.4916,VALID,12,VALID,0.150781,
2012-08-21, 00:46:04,VALID,1000.35,VALID,0,VALID,91.1968,VALID,0,VALID,22.4704,VALID,12,VALID,0.394922,
2012-08-21, 00:47:04,VALID,1000.35,VALID,0,VALID,90.9374,VALID,0,VALID,22.4899,VALID,16,VALID,0.445703,
2012-08-21, 00:48:04,VALID,1000.3,VALID,0,VALID,90.5407,VALID,0,VALID,22.5892,VALID,24,VALID,0.711719,
2012-08-21, 00:49:04,VALID,1000.27,VALID,0,VALID,89.8922,VALID,0,VALID,22.7062,VALID,28,VALID,1.12852,
2012-08-21, 00:50:04,VALID,1000.26,VALID,0,VALID,89.7625,VALID,0,VALID,22.7435,VALID,32,VALID,1.21875,
2012-08-21, 00:51:04,VALID,1000.26,VALID,0,VALID,89.2513,VALID,0,VALID,22.8232,VALID,32,VALID,1.00352,
2012-08-21, 00:52:04,VALID,1000.27,VALID,0,VALID,89.0606,VALID,0,VALID,22.8232,VALID,36,VALID,1.22734,
2012-08-21, 00:53:04,VALID,1000.29,VALID,0,VALID,89.0834,VALID,0,VALID,22.7842,VALID,61,VALID,1.27891,
2012-08-21, 00:54:04,VALID,1000.28,VALID,0,VALID,89.6404,VALID,0,VALID,22.7452,VALID,66,VALID,1.28477,
2012-08-21, 00:55:04,VALID,1000.27,VALID,0,VALID,89.5717,VALID,0,VALID,22.7647,VALID,75,VALID,1.72852,
2012-08-21, 00:56:04,VALID,1000.3,VALID,0,VALID,89.5412,VALID,0,VALID,22.7435,VALID,79,VALID,1.75156,
2012-08-21, 00:57:04,VALID,1000.27,VALID,0,VALID,89.6404,VALID,0,VALID,22.7647,VALID,73,VALID,1.40703,
2012-08-21, 00:58:04,VALID,1000.25,VALID,0,VALID,89.999,VALID,0,VALID,22.7257,VALID,61,VALID,1.25977,
2012-08-21, 00:59:04,VALID,1000.24,VALID,0,VALID,90.472,VALID,0,VALID,22.7257,VALID,68,VALID,1.20625,
2012-08-21, 01:00:04,VALID,1000.28,VALID,0,VALID,90.5178,VALID,0,VALID,22.6672,VALID,72,VALID,0.955859,
2012-08-21, 01:01:04,VALID,1000.21,VALID,0,VALID,90.4644,VALID,0,VALID,22.646,VALID,71,VALID,0.955078,
2012-08-21, 01:02:04,VALID,1000.18,VALID,0,VALID,90.5941,VALID,0,VALID,22.6477,VALID,58,VALID,1.17695,
2012-08-21, 01:03:04,VALID,1000.18,VALID,0,VALID,90.3423,VALID,0,VALID,22.6477,VALID,47,VALID,0.981641,
2012-08-21, 01:04:04,VALID,1000.18,VALID,0,VALID,90.3423,VALID,0,VALID,22.6672,VALID,38,VALID,0.486328,
2012-08-21, 01:05:04,VALID,1000.13,VALID,0,VALID,90.5941,VALID,0,VALID,22.6655,VALID,4,VALID,0.760547,
2012-08-21, 01:06:04,VALID,1000.17,VALID,0,VALID,91.0595,VALID,0,VALID,22.6689,VALID,4,VALID,0.741016,
2012-08-21, 01:07:04,VALID,1000.19,VALID,0,VALID,91.1663,VALID,0,VALID,22.6494,VALID,4,VALID,0.423047,
2012-08-21, 01:08:04,VALID,1000.18,VALID,0,VALID,91.235,VALID,0,VALID,22.6087,VALID,4,VALID,0.416016,
2012-08-21, 01:09:04,VALID,1000.2,VALID,0,VALID,91.3494,VALID,0,VALID,22.6087,VALID,4,VALID,0.205469,
2012-08-21, 01:10:04,VALID,1000.17,VALID,0,VALID,91.1816,VALID,0,VALID,22.6104,VALID,4,VALID,0.300781,
2012-08-21, 01:11:04,VALID,1000.17,VALID,0,VALID,91.0137,VALID,0,VALID,22.6104,VALID,4,VALID,0.462891,
2012-08-21, 01:12:04,VALID,1000.19,VALID,0,VALID,90.823,VALID,0,VALID,22.6282,VALID,4,VALID,0.294531,
2012-08-21, 01:13:04,VALID,1000.21,VALID,0,VALID,90.5254,VALID,0,VALID,22.6494,VALID,5,VALID,0.677344,
2012-08-21, 01:14:04,VALID,1000.19,VALID,0,VALID,89.5794,VALID,0,VALID,22.6884,VALID,89,VALID,1.37422,
2012-08-21, 01:15:04,VALID,1000.16,VALID,0,VALID,88.4197,VALID,0,VALID,22.7842,VALID,102,VALID,1.06445,
2012-08-21, 01:16:04,VALID,1000.14,VALID,0,VALID,87.3668,VALID,0,VALID,22.8818,VALID,102,VALID,1.33438,
2012-08-21, 01:17:04,VALID,1000.13,VALID,0,VALID,86.4894,VALID,0,VALID,23.0396,VALID,102,VALID,1.01172,
2012-08-21, 01:18:04,VALID,1000.14,VALID,0,VALID,86.4131,VALID,0,VALID,23.0591,VALID,102,VALID,1.05664,
2012-08-21, 01:19:04,VALID,1000.11,VALID,0,VALID,86.1537,VALID,0,VALID,23.0591,VALID,102,VALID,0.971875,
2012-08-21, 01:20:04,VALID,1000.12,VALID,0,VALID,85.7188,VALID,0,VALID,23.0786,VALID,104,VALID,1.25586,
2012-08-21, 01:21:04,VALID,1000.12,VALID,0,VALID,85.3297,VALID,0,VALID,23.1176,VALID,124,VALID,1.31523,
2012-08-21, 01:22:04,VALID,1000.13,VALID,0,VALID,85.4594,VALID,0,VALID,23.0769,VALID,142,VALID,1.37852,
2012-08-21, 01:23:04,VALID,1000.06,VALID,0,VALID,85.4823,VALID,0,VALID,23.1371,VALID,148,VALID,1.26563,
2012-08-21, 01:24:04,VALID,1000.07,VALID,0,VALID,85.1389,VALID,0,VALID,23.1762,VALID,154,VALID,1.6332,
2012-08-21, 01:25:04,VALID,1000.04,VALID,0,VALID,84.6735,VALID,0,VALID,23.2134,VALID,153,VALID,1.60977,
2012-08-21, 01:26:04,VALID,1000.01,VALID,0,VALID,84.1318,VALID,0,VALID,23.2932,VALID,145,VALID,1.59297,
2012-08-21, 01:27:04,VALID,999.966,VALID,0,VALID,83.7274,VALID,0,VALID,23.3323,VALID,136,VALID,1.67188,
2012-08-21, 01:28:04,VALID,999.971,VALID,0,VALID,83.1934,VALID,0,VALID,23.3713,VALID,140,VALID,1.23359,
2012-08-21, 01:29:04,VALID,999.932,VALID,0,VALID,82.8882,VALID,0,VALID,23.4298,VALID,138,VALID,1.19141,
2012-08-21, 01:30:04,VALID,999.953,VALID,0,VALID,82.5449,VALID,0,VALID,23.4688,VALID,151,VALID,1.6043,
2012-08-21, 01:31:04,VALID,999.938,VALID,0,VALID,82.3389,VALID,0,VALID,23.5079,VALID,155,VALID,1.34023,
2012-08-21, 01:32:04,VALID,999.939,VALID,0,VALID,82.1863,VALID,0,VALID,23.5274,VALID,155,VALID,1.60273,
2012-08-21, 01:33:04,VALID,999.938,VALID,0,VALID,82.0337,VALID,0,VALID,23.5451,VALID,150,VALID,1.3668,
2012-08-21, 01:34:04,VALID,999.937,VALID,0,VALID,82.1252,VALID,0,VALID,23.5469,VALID,150,VALID,1.26602,
2012-08-21, 01:35:04,VALID,999.927,VALID,0,VALID,82.4152,VALID,0,VALID,23.5079,VALID,150,VALID,1.0207,
2012-08-21, 01:36:04,VALID,999.921,VALID,0,VALID,82.583,VALID,0,VALID,23.4671,VALID,150,VALID,0.751953,
2012-08-21, 01:37:04,VALID,999.931,VALID,0,VALID,82.7051,VALID,0.104696,VALID,23.4475,VALID,150,VALID,0.936328,
2012-08-21, 01:38:04,VALID,999.91,VALID,0,VALID,82.7509,VALID,0.104696,VALID,23.428,VALID,162,VALID,1.46953,
2012-08-21, 01:39:04,VALID,999.933,VALID,0,VALID,82.4686,VALID,0,VALID,23.4671,VALID,153,VALID,1.61563,
2012-08-21, 01:40:04,VALID,999.896,VALID,0,VALID,82.522,VALID,0,VALID,23.4671,VALID,142,VALID,1.67227,
2012-08-21, 01:41:04,VALID,999.887,VALID,0,VALID,82.7127,VALID,0,VALID,23.4671,VALID,142,VALID,1.51523,
2012-08-21, 01:42:04,VALID,999.883,VALID,0,VALID,82.9569,VALID,0.104696,VALID,23.4085,VALID,141,VALID,1.58242,
2012-08-21, 01:43:04,VALID,999.866,VALID,0,VALID,82.9721,VALID,0,VALID,23.4085,VALID,149,VALID,1.54297,
2012-08-21, 01:44:04,VALID,999.859,VALID,0,VALID,82.9798,VALID,0,VALID,23.3872,VALID,155,VALID,1.55742,
2012-08-21, 01:45:04,VALID,999.853,VALID,0,VALID,82.5906,VALID,0,VALID,23.3872,VALID,149,VALID,1.66758,
2012-08-21, 01:46:04,VALID,999.849,VALID,0,VALID,80.8358,VALID,0,VALID,23.428,VALID,146,VALID,2.12891,
2012-08-21, 01:47:04,VALID,999.837,VALID,0,VALID,79.5617,VALID,0,VALID,23.5256,VALID,147,VALID,2.49258,
2012-08-21, 01:48:04,VALID,999.849,VALID,0,VALID,79.0276,VALID,0,VALID,23.6036,VALID,148,VALID,2.17383,
2012-08-21, 01:49:04,VALID,999.867,VALID,0,VALID,78.9666,VALID,0,VALID,23.6409,VALID,153,VALID,2.39492,
2012-08-21, 01:50:04,VALID,999.812,VALID,0,VALID,78.9666,VALID,0,VALID,23.6427,VALID,149,VALID,2.02773,
2012-08-21, 01:51:04,VALID,999.763,VALID,0,VALID,79.0352,VALID,0,VALID,23.6019,VALID,134,VALID,1.00586,
2012-08-21, 01:52:04,VALID,999.776,VALID,0,VALID,79.5006,VALID,0,VALID,23.5841,VALID,137,VALID,1.14805,
2012-08-21, 01:53:04,VALID,999.786,VALID,0,VALID,79.8592,VALID,0,VALID,23.5061,VALID,145,VALID,1.18203,
2012-08-21, 01:54:04,VALID,999.786,VALID,0,VALID,80.0576,VALID,0,VALID,23.4671,VALID,156,VALID,1.65664,
2012-08-21, 01:55:04,VALID,999.801,VALID,0,VALID,79.76,VALID,0,VALID,23.4671,VALID,157,VALID,2.00391,
2012-08-21, 01:56:04,VALID,999.798,VALID,0,VALID,79.6838,VALID,0.104696,VALID,23.5043,VALID,147,VALID,1.6293,
2012-08-21, 01:57:04,VALID,999.763,VALID,0,VALID,79.7524,VALID,0,VALID,23.5061,VALID,140,VALID,1.55508,
2012-08-21, 01:58:04,VALID,999.736,VALID,0,VALID,80.0118,VALID,0,VALID,23.4866,VALID,144,VALID,1.28203,
2012-08-21, 01:59:04,VALID,999.71,VALID,0,VALID,79.9432,VALID,0,VALID,23.4475,VALID,151,VALID,1.29922,
2012-08-21, 02:00:04,VALID,999.74,VALID,0,VALID,80.0271,VALID,0,VALID,23.4671,VALID,153,VALID,1.20664,
2012-08-21, 02:01:04,VALID,999.712,VALID,0,VALID,80.1263,VALID,0,VALID,23.4475,VALID,148,VALID,1.09141,
2012-08-21, 02:02:04,VALID,999.677,VALID,0,VALID,80.1339,VALID,0,VALID,23.4263,VALID,135,VALID,0.967969,
2012-08-21, 02:03:04,VALID,999.681,VALID,0,VALID,79.9355,VALID,0,VALID,23.4067,VALID,140,VALID,1.13164,
2012-08-21, 02:04:04,VALID,999.671,VALID,0,VALID,79.7066,VALID,0,VALID,23.4475,VALID,141,VALID,1.16836,
2012-08-21, 02:05:04,VALID,999.706,VALID,0,VALID,79.7219,VALID,0,VALID,23.4653,VALID,151,VALID,1.59297,
2012-08-21, 02:06:04,VALID,999.668,VALID,0,VALID,78.9666,VALID,0,VALID,23.6054,VALID,144,VALID,2.31172,
2012-08-21, 02:07:04,VALID,999.635,VALID,0,VALID,78.8903,VALID,0,VALID,23.6445,VALID,127,VALID,2.04961,
2012-08-21, 02:08:04,VALID,999.635,VALID,0,VALID,79.5083,VALID,0,VALID,23.5664,VALID,127,VALID,2.03281,
2012-08-21, 02:09:04,VALID,999.639,VALID,0,VALID,80.1339,VALID,0,VALID,23.4493,VALID,124,VALID,1.96641,
2012-08-21, 02:10:04,VALID,999.597,VALID,0,VALID,80.8511,VALID,0,VALID,23.3323,VALID,124,VALID,1.65547,
2012-08-21, 02:11:04,VALID,999.581,VALID,0,VALID,81.9192,VALID,0,VALID,23.2152,VALID,117,VALID,1.74531,
2012-08-21, 02:12:04,VALID,999.58,VALID,0,VALID,83.0026,VALID,0,VALID,23.1176,VALID,114,VALID,1.59102,
2012-08-21, 02:13:04,VALID,999.546,VALID,0,VALID,83.8266,VALID,0,VALID,23.0201,VALID,115,VALID,1.47031,
2012-08-21, 02:14:04,VALID,999.551,VALID,0,VALID,84.2386,VALID,0,VALID,22.9615,VALID,113,VALID,1.47031,
2012-08-21, 02:15:04,VALID,999.529,VALID,0,VALID,84.5209,VALID,0,VALID,22.903,VALID,113,VALID,1.65937,
2012-08-21, 02:16:04,VALID,999.526,VALID,0,VALID,83.8877,VALID,0,VALID,22.942,VALID,119,VALID,1.78711,
2012-08-21, 02:17:04,VALID,999.538,VALID,0,VALID,84.2081,VALID,0,VALID,22.942,VALID,115,VALID,1.6957,
2012-08-21, 02:18:04,VALID,999.518,VALID,0,VALID,84.0708,VALID,0,VALID,22.9225,VALID,115,VALID,1.93281,
2012-08-21, 02:19:04,VALID,999.538,VALID,0,VALID,84.2081,VALID,0,VALID,22.8818,VALID,120,VALID,1.91641,
2012-08-21, 02:20:04,VALID,999.545,VALID,0,VALID,83.5749,VALID,0,VALID,22.903,VALID,129,VALID,1.65078,
2012-08-21, 02:21:04,VALID,999.536,VALID,0,VALID,82.9645,VALID,0,VALID,22.9615,VALID,132,VALID,1.54336,
2012-08-21, 02:22:04,VALID,999.531,VALID,0,VALID,82.3312,VALID,0,VALID,23.0201,VALID,135,VALID,1.32344,
2012-08-21, 02:23:04,VALID,999.522,VALID,0,VALID,81.7743,VALID,0,VALID,23.0769,VALID,136,VALID,1.34844,
2012-08-21, 02:24:04,VALID,999.475,VALID,0,VALID,81.4309,VALID,0,VALID,23.1566,VALID,146,VALID,1.14805,
2012-08-21, 02:25:04,VALID,999.509,VALID,0,VALID,81.0647,VALID,0,VALID,23.1744,VALID,148,VALID,1.5043,
2012-08-21, 02:26:04,VALID,999.478,VALID,0,VALID,80.5535,VALID,0,VALID,23.2329,VALID,162,VALID,1.53555,
2012-08-21, 02:27:04,VALID,999.443,VALID,0,VALID,80.0423,VALID,0,VALID,23.311,VALID,161,VALID,1.33711,
2012-08-21, 02:28:04,VALID,999.421,VALID,0,VALID,79.1878,VALID,0,VALID,23.428,VALID,158,VALID,1.28086,
2012-08-21, 02:29:04,VALID,999.437,VALID,0,VALID,78.8979,VALID,0,VALID,23.4866,VALID,163,VALID,1.25742,
2012-08-21, 02:30:04,VALID,999.422,VALID,0,VALID,78.1731,VALID,0,VALID,23.5664,VALID,169,VALID,1.39805,
2012-08-21, 02:31:04,VALID,999.416,VALID,0,VALID,78.1502,VALID,0,VALID,23.6445,VALID,168,VALID,1.01563,
2012-08-21, 02:32:04,VALID,999.449,VALID,0,VALID,77.6085,VALID,0,VALID,23.6622,VALID,147,VALID,1.13125,
2012-08-21, 02:33:04,VALID,999.451,VALID,0,VALID,76.9676,VALID,0,VALID,23.7207,VALID,149,VALID,1.69297,
2012-08-21, 02:34:04,VALID,999.457,VALID,0,VALID,76.3191,VALID,0,VALID,23.8183,VALID,150,VALID,1.66016,
2012-08-21, 02:35:04,VALID,999.439,VALID,0,VALID,75.9986,VALID,0,VALID,23.8982,VALID,156,VALID,1.81367,
2012-08-21, 02:36:04,VALID,999.415,VALID,0,VALID,76.0368,VALID,0,VALID,23.9354,VALID,140,VALID,1.70117,
2012-08-21, 02:37:04,VALID,999.449,VALID,0,VALID,76.2733,VALID,0,VALID,23.9159,VALID,136,VALID,1.49531,
2012-08-21, 02:38:04,VALID,999.455,VALID,0,VALID,76.6166,VALID,0,VALID,23.8555,VALID,142,VALID,0.975781,
2012-08-21, 02:39:04,VALID,999.502,VALID,0,VALID,76.7082,VALID,0.104696,VALID,23.8165,VALID,163,VALID,1.31367,
2012-08-21, 02:40:04,VALID,999.509,VALID,0,VALID,76.7006,VALID,0,VALID,23.8165,VALID,146,VALID,1.23516,
2012-08-21, 02:41:04,VALID,999.545,VALID,0,VALID,76.7692,VALID,0,VALID,23.8183,VALID,157,VALID,1.32227,
2012-08-21, 02:42:04,VALID,999.573,VALID,0,VALID,77.0515,VALID,0,VALID,23.7988,VALID,164,VALID,1.1375,
2012-08-21, 02:43:04,VALID,999.595,VALID,0,VALID,77.0286,VALID,0,VALID,23.7579,VALID,165,VALID,1.15703,
2012-08-21, 02:44:04,VALID,999.565,VALID,0,VALID,76.9523,VALID,0,VALID,23.7579,VALID,156,VALID,0.941797,
2012-08-21, 02:45:04,VALID,999.544,VALID,0,VALID,77.578,VALID,0.104696,VALID,23.7384,VALID,140,VALID,0.875,
2012-08-21, 02:46:04,VALID,999.57,VALID,0,VALID,77.6848,VALID,0,VALID,23.6604,VALID,123,VALID,0.903906,
2012-08-21, 02:47:04,VALID,999.567,VALID,0,VALID,77.7992,VALID,0,VALID,23.6019,VALID,146,VALID,0.892969,
2012-08-21, 02:48:04,VALID,999.548,VALID,0,VALID,78.1197,VALID,0,VALID,23.5823,VALID,146,VALID,0.705078,
2012-08-21, 02:49:04,VALID,999.568,VALID,0,VALID,78.2036,VALID,0,VALID,23.5628,VALID,178,VALID,1.11406,
2012-08-21, 02:50:04,VALID,999.55,VALID,0,VALID,77.4635,VALID,0.104696,VALID,23.6232,VALID,133,VALID,1.39375,
2012-08-21, 02:51:04,VALID,999.505,VALID,0,VALID,77.3338,VALID,0,VALID,23.6445,VALID,160,VALID,1.11094,
2012-08-21, 02:52:04,VALID,999.493,VALID,0,VALID,77.2118,VALID,0,VALID,23.6622,VALID,150,VALID,1.35195,
2012-08-21, 02:53:04,VALID,999.48,VALID,0,VALID,77.1736,VALID,0,VALID,23.6835,VALID,153,VALID,1.36094,
2012-08-21, 02:54:04,VALID,999.477,VALID,0,VALID,77.166,VALID,0,VALID,23.6622,VALID,155,VALID,1.41719,
2012-08-21, 02:55:04,VALID,999.433,VALID,0,VALID,77.4254,VALID,0,VALID,23.6427,VALID,170,VALID,1.55625,
2012-08-21, 02:56:04,VALID,999.408,VALID,0,VALID,77.3415,VALID,0,VALID,23.6427,VALID,178,VALID,1.34805,
2012-08-21, 02:57:04,VALID,999.411,VALID,0,VALID,77.1965,VALID,0,VALID,23.6817,VALID,161,VALID,1.07227,
2012-08-21, 02:58:04,VALID,999.441,VALID,0,VALID,76.6624,VALID,0,VALID,23.6817,VALID,157,VALID,1.38477,
2012-08-21, 02:59:04,VALID,999.38,VALID,0,VALID,76.754,VALID,0,VALID,23.7207,VALID,161,VALID,1.20039,
2012-08-21, 03:00:04,VALID,999.373,VALID,0,VALID,76.8837,VALID,0,VALID,23.7012,VALID,174,VALID,1.4875,
2012-08-21, 03:01:04,VALID,999.38,VALID,0,VALID,76.8989,VALID,0,VALID,23.6817,VALID,164,VALID,1.74414,
2012-08-21, 03:02:04,VALID,999.369,VALID,0,VALID,76.4946,VALID,0,VALID,23.7207,VALID,151,VALID,1.48242,
2012-08-21, 03:03:04,VALID,999.332,VALID,0,VALID,76.7845,VALID,0,VALID,23.7616,VALID,156,VALID,1.03086,
2012-08-21, 03:04:04,VALID,999.341,VALID,0,VALID,76.4335,VALID,0,VALID,23.7207,VALID,168,VALID,1.07852,
2012-08-21, 03:05:04,VALID,999.345,VALID,0,VALID,76.609,VALID,0,VALID,23.7012,VALID,171,VALID,1.15898,
2012-08-21, 03:06:04,VALID,999.316,VALID,0,VALID,76.9142,VALID,0,VALID,23.7207,VALID,173,VALID,0.948438,
2012-08-21, 03:07:04,VALID,999.346,VALID,0,VALID,76.6624,VALID,0,VALID,23.703,VALID,155,VALID,1.24258,
2012-08-21, 03:08:04,VALID,999.338,VALID,0,VALID,76.8608,VALID,0,VALID,23.6817,VALID,153,VALID,0.989844,
2012-08-21, 03:09:04,VALID,999.333,VALID,0,VALID,77.0515,VALID,0,VALID,23.6427,VALID,142,VALID,0.944141,
2012-08-21, 03:10:04,VALID,999.313,VALID,0,VALID,77.3338,VALID,0,VALID,23.6054,VALID,142,VALID,0.587109,
2012-08-21, 03:11:04,VALID,999.294,VALID,0,VALID,77.0134,VALID,0,VALID,23.5451,VALID,147,VALID,0.915234,
2012-08-21, 03:12:04,VALID,999.289,VALID,0,VALID,77.3262,VALID,0,VALID,23.5859,VALID,141,VALID,0.766016,
2012-08-21, 03:13:04,VALID,999.291,VALID,0,VALID,77.2041,VALID,0,VALID,23.5451,VALID,146,VALID,0.739062,
2012-08-21, 03:14:04,VALID,999.28,VALID,0,VALID,77.4101,VALID,0,VALID,23.5451,VALID,128,VALID,0.662109,
2012-08-21, 03:15:04,VALID,999.29,VALID,0,VALID,77.5017,VALID,0,VALID,23.5274,VALID,128,VALID,0.488281,
2012-08-21, 03:16:04,VALID,999.311,VALID,0,VALID,77.4559,VALID,0,VALID,23.5079,VALID,168,VALID,0.728516,
2012-08-21, 03:17:04,VALID,999.312,VALID,0,VALID,77.7382,VALID,0,VALID,23.4884,VALID,169,VALID,0.638281,
2012-08-21, 03:18:04,VALID,999.294,VALID,0,VALID,77.639,VALID,0,VALID,23.4688,VALID,169,VALID,0.819531,
2012-08-21, 03:19:04,VALID,999.272,VALID,0,VALID,77.5475,VALID,0,VALID,23.5079,VALID,169,VALID,0.575781,
2012-08-21, 03:20:04,VALID,999.233,VALID,0,VALID,77.4025,VALID,0,VALID,23.5079,VALID,169,VALID,0.701953,
2012-08-21, 03:21:04,VALID,999.218,VALID,0,VALID,77.4254,VALID,0,VALID,23.5256,VALID,159,VALID,0.425391,
2012-08-21, 03:22:04,VALID,999.212,VALID,0,VALID,77.4178,VALID,0,VALID,23.4848,VALID,144,VALID,0.463281,
2012-08-21, 03:23:04,VALID,999.225,VALID,0,VALID,77.3643,VALID,0,VALID,23.4848,VALID,138,VALID,0.672266,
2012-08-21, 03:24:04,VALID,999.207,VALID,0,VALID,77.2728,VALID,0,VALID,23.5043,VALID,118,VALID,0.705469,
2012-08-21, 03:25:04,VALID,999.236,VALID,0,VALID,77.8145,VALID,0,VALID,23.4848,VALID,117,VALID,0.529688,
2012-08-21, 03:26:04,VALID,999.211,VALID,0,VALID,77.6924,VALID,0,VALID,23.4475,VALID,117,VALID,0.664453,
2012-08-21, 03:27:04,VALID,999.263,VALID,0,VALID,78.0968,VALID,0,VALID,23.4085,VALID,117,VALID,0.321094,
2012-08-21, 03:28:04,VALID,999.235,VALID,0,VALID,78.3715,VALID,0,VALID,23.3287,VALID,117,VALID,0.0503906,
2012-08-21, 03:29:04,VALID,999.257,VALID,0,VALID,78.7529,VALID,0,VALID,23.311,VALID,117,VALID,0,
2012-08-21, 03:30:04,VALID,999.244,VALID,0,VALID,79.2794,VALID,0,VALID,23.2312,VALID,117,VALID,0,
2012-08-21, 03:31:04,VALID,999.23,VALID,0,VALID,80.9579,VALID,0,VALID,23.1921,VALID,117,VALID,0.260547,
2012-08-21, 03:32:04,VALID,999.235,VALID,0,VALID,81.2631,VALID,0,VALID,23.1159,VALID,117,VALID,0.250781,
2012-08-21, 03:33:04,VALID,999.166,VALID,0,VALID,81.3775,VALID,0,VALID,23.0166,VALID,117,VALID,0.425391,
2012-08-21, 03:34:04,VALID,999.179,VALID,0,VALID,81.1868,VALID,0,VALID,22.9793,VALID,117,VALID,0.418359,
2012-08-21, 03:35:04,VALID,999.164,VALID,0,VALID,81.0571,VALID,0,VALID,22.919,VALID,117,VALID,0.0523437,
2012-08-21, 03:36:04,VALID,999.163,VALID,0,VALID,81.0418,VALID,0,VALID,22.9403,VALID,117,VALID,0.1875,
2012-08-21, 03:37:04,VALID,999.156,VALID,0,VALID,81.553,VALID,0,VALID,22.919,VALID,117,VALID,0.205859,
2012-08-21, 03:38:04,VALID,999.16,VALID,0,VALID,82.6593,VALID,0.104696,VALID,22.919,VALID,117,VALID,0.419141,
2012-08-21, 03:39:04,VALID,999.159,VALID,0,VALID,83.1171,VALID,0,VALID,22.8818,VALID,117,VALID,0.461328,
2012-08-21, 03:40:04,VALID,999.171,VALID,0,VALID,83.4909,VALID,0,VALID,22.8037,VALID,117,VALID,0.350781,
2012-08-21, 03:41:04,VALID,999.187,VALID,0,VALID,84.0708,VALID,0.104696,VALID,22.7435,VALID,45,VALID,0.566016,
2012-08-21, 03:42:04,VALID,999.171,VALID,0,VALID,84.3683,VALID,0,VALID,22.7062,VALID,45,VALID,0.601172,
2012-08-21, 03:43:04,VALID,999.223,VALID,0,VALID,84.788,VALID,0,VALID,22.6069,VALID,45,VALID,0.698047,
2012-08-21, 03:44:04,VALID,999.188,VALID,0,VALID,85.2381,VALID,0,VALID,22.5094,VALID,58,VALID,1.48398,
2012-08-21, 03:45:04,VALID,999.177,VALID,0,VALID,86.6115,VALID,0,VALID,22.4526,VALID,50,VALID,1.16445,